GW3797 Weather Reports


time (UTC)temp
C
wind
direction
speed
KPH
gust
KPH
rain 1hr
cm
rain 24hr
cm
rain mn
cm
humidity
%
barometer
mb
20260510045305 10 21 1.6 4.8 0.00 0.00 0.00 99 1007.3
20260510044759 10 116 4.8 9.7 0.00 0.00 0.00 99 1007.0
20260510044256 10 174 6.4 6.4 0.00 0.00 0.00 99 1006.7
20260510043751 10 117 6.4 6.4 0.00 0.00 0.00 99 1006.7
20260510043243 10 197 3.2 4.8 0.00 0.00 0.00 99 1006.6
20260510042740 10 238 1.6 6.4 0.00 0.00 0.00 99 1006.3
20260510042236 10 132 4.8 8.0 0.00 0.00 0.00 99 1006.0
20260510041733 10 123 3.2 6.4 0.00 0.00 0.00 99 1006.0
20260510041230 10 162 3.2 6.4 0.00 0.00 0.00 98 1006.0
20260510040727 10 127 6.4 8.0 0.00 0.00 0.00 98 1006.0
20260510040224 11 174 1.6 4.8 0.00 0.00 0.00 98 1006.0
20260510035719 11 262 3.2 3.2 0.00 1.32 1.32 98 1005.9
20260510035215 11 156 4.8 11.3 0.00 1.32 1.32 97 1005.8
20260510034711 11 175 6.4 6.4 0.00 1.32 1.32 98 1006.0
20260510034210 10 110 3.2 6.4 0.00 1.32 1.32 98 1006.0
20260510033705 10 85 4.8 6.4 0.00 1.32 1.32 98 1005.7
20260510033204 10 142 3.2 6.4 0.00 1.32 1.32 98 1005.7
20260510032659 10 189 1.6 4.8 0.00 1.32 1.32 99 1006.0
20260510032154 10 95 3.2 6.4 0.00 1.32 1.32 99 1005.8
20260510031649 10 135 4.8 8.0 0.00 1.32 1.32 99 1006.0
20260510031147 10 186 3.2 6.4 0.00 1.32 1.32 99 1005.9
20260510030641 10 272 0.0 4.8 0.00 1.32 1.32 99 1005.8
20260510030139 10 121 4.8 6.4 0.00 1.32 1.32 98 1005.8
20260510025636 10 112 0.0 6.4 0.00 1.32 1.32 98 1006.0
20260510025133 10 135 4.8 4.8 0.00 1.32 1.32 98 1006.0
20260510024630 11 116 4.8 8.0 0.00 1.32 1.32 97 1005.9
20260510024126 11 137 3.2 3.2 0.00 1.32 1.32 97 1006.0
20260510023622 11 121 4.8 6.4 0.00 1.32 1.32 97 1006.0
20260510023120 11 166 6.4 9.7 0.00 1.32 1.32 97 1006.1
20260510022619 11 153 4.8 6.4 0.00 1.32 1.32 97 1006.1
20260510022114 11 168 3.2 6.4 0.00 1.32 1.32 97 1005.9
20260510021610 11 132 3.2 6.4 0.00 1.32 1.32 96 1006.1
20260510021108 11 180 3.2 9.7 0.00 1.32 1.32 96 1006.0
20260510020601 11 102 1.6 6.4 0.00 1.32 1.32 96 1005.8
20260510020057 11 101 1.6 6.4 0.00 1.32 1.32 96 1006.1
20260510015553 11 131 6.4 8.0 0.00 1.32 1.32 95 1005.9
20260510015050 11 134 3.2 9.7 0.00 1.32 1.32 95 1005.9
20260510014546 11 146 8.0 11.3 0.00 1.32 1.32 95 1005.6
20260510014043 11 269 6.4 8.0 0.00 1.32 1.32 95 1005.7
20260510013532 11 134 8.0 12.9 0.00 1.32 1.32 95 1005.4
20260510013028 11 187 3.2 9.7 0.00 1.32 1.32 96 1005.5
20260510012527 11 240 3.2 8.0 0.00 1.32 1.32 96 1005.4
20260510012024 11 200 3.2 12.9 0.00 1.32 1.32 96 1005.4
20260510011519 11 188 3.2 9.7 0.00 1.32 1.32 97 1005.4
20260510011015 11 192 3.2 6.4 0.00 1.32 1.32 98 1005.5
20260510010512 11 179 4.8 8.0 0.00 1.32 1.32 97 1005.4
20260510010009 11 146 0.0 6.4 0.00 1.32 1.32 98 1005.2
20260510005504 11 145 4.8 9.7 0.00 1.32 1.32 98 1005.3
20260510005002 11 167 6.4 8.0 0.00 1.32 1.32 98 1005.1
20260510004459 10 110 0.0 4.8 0.00 1.32 1.32 98 1005.4
20260510003957 11 73 1.6 6.4 0.00 1.32 1.32 98 1005.4
20260510003454 11 191 4.8 8.0 0.00 1.32 1.32 98 1005.2
20260510002949 11 126 4.8 6.4 0.00 1.32 1.32 98 1005.1
20260510002445 11 162 6.4 19.3 0.00 1.32 1.32 98 1005.2
20260510001942 11 195 6.4 8.0 0.00 1.32 1.32 98 1005.0
20260510001439 11 35 1.6 9.7 0.00 1.32 1.32 98 1004.9
20260510000937 11 150 3.2 11.3 0.00 1.32 1.32 99 1004.7
20260510000433 11 99 4.8 6.4 0.00 1.32 1.32 99 1004.8
20260509235929 11 149 4.8 11.3 0.13 1.32 1.32 99 1005.0
20260509235426 11 166 8.0 9.7 0.36 1.32 1.32 99 1005.1
20260509234922 10 98 12.9 14.5 0.61 1.30 1.30 99 1004.5
20260509234419 10 132 8.0 11.3 0.71 1.24 1.24 99 1005.5
20260509233918 10 151 4.8 6.4 0.79 1.19 1.19 99 1006.1
20260509233414 10 100 3.2 8.0 0.84 1.09 1.09 99 1006.1
20260509232910 10 100 6.4 17.7 1.07 1.04 1.04 99 1006.1
20260509232403 10 152 1.6 6.4 0.79 0.94 0.94 99 1006.1
20260509231858 10 190 3.2 6.4 0.66 0.84 0.84 99 1006.0
20260509231355 10 87 4.8 6.4 1.68 0.79 0.79 98 1006.0
20260509230853 10 273 8.0 12.9 2.34 0.71 0.71 98 1005.9
20260509230350 10 78 3.2 6.4 1.93 0.48 0.48 97 1006.3
20260509225845 10 286 6.4 9.7 1.07 0.28 0.28 96 1005.9
20260509225342 10 198 6.4 17.7 0.61 0.15 0.15 94 1005.5
20260509224838 11 152 6.4 16.1 0.18 0.10 0.10 91 1005.2
20260509224334 13 281 11.3 17.7 0.00 0.05 0.05 83 1005.1
20260509223831 16 359 3.2 4.8 0.00 0.05 0.05 71 1003.6
20260509223328 17 251 3.2 4.8 0.00 0.05 0.05 70 1003.4
20260509222825 17 53 3.2 4.8 0.00 0.05 0.05 65 1003.1
20260509222320 17 294 3.2 4.8 0.00 0.05 0.05 64 1003.0
20260509221816 18 77 3.2 16.1 0.00 0.05 0.05 61 1002.9
20260509221313 18 201 6.4 12.9 0.00 0.05 0.05 58 1002.7
20260509220808 18 171 8.0 12.9 0.00 0.05 0.05 58 1002.4
20260509220305 18 231 3.2 16.1 0.00 0.05 0.05 59 1002.5
20260509215800 18 251 11.3 16.1 0.00 0.05 0.05 58 1002.5
20260509215257 18 182 6.4 9.7 0.00 0.05 0.05 59 1002.5
20260509214754 18 162 4.8 16.1 0.00 0.05 0.05 59 1002.6
20260509214251 18 124 16.1 17.7 0.00 0.05 0.05 59 1002.4
20260509213748 18 180 4.8 6.4 0.00 0.05 0.05 61 1002.5
20260509213244 18 207 9.7 17.7 0.00 0.05 0.05 57 1002.3
20260509212741 18 192 8.0 17.7 0.00 0.05 0.05 58 1002.2
20260509212239 18 205 14.5 20.9 0.00 0.05 0.05 58 1002.3
20260509211734 19 224 12.9 24.1 0.00 0.05 0.05 57 1002.2
20260509211230 18 184 8.0 22.5 0.00 0.05 0.05 59 1002.2
20260509210727 18 227 9.7 16.1 0.00 0.05 0.05 57 1002.4
20260509210225 19 200 4.8 27.4 0.00 0.05 0.05 56 1002.4
20260509205724 19 204 11.3 24.1 0.00 0.05 0.05 58 1002.4
20260509205224 19 176 9.7 33.8 0.00 0.05 0.05 58 1002.4
20260509204721 19 161 9.7 20.9 0.00 0.05 0.05 58 1002.5
20260509204217 20 204 17.7 22.5 0.00 0.05 0.05 57 1002.7
20260509203713 18 225 19.3 30.6 0.00 0.05 0.05 57 1002.8
20260509203211 19 210 12.9 22.5 0.00 0.05 0.05 57 1002.7
20260509202707 19 187 8.0 12.9 0.00 0.05 0.05 60 1003.0
20260509202202 19 161 11.3 19.3 0.00 0.05 0.05 57 1003.1
20260509201657 18 196 11.3 16.1 0.00 0.05 0.05 60 1003.1
20260509201154 17 184 9.7 24.1 0.00 0.05 0.05 60 1003.1
20260509200651 18 172 9.7 20.9 0.00 0.05 0.05 61 1003.4
20260509200145 17 190 12.9 14.5 0.00 0.05 0.05 61 1003.5
20260509195641 18 178 16.1 22.5 0.00 0.05 0.05 60 1003.4
20260509195136 18 150 3.2 16.1 0.00 0.05 0.05 59 1003.3
20260509194631 18 167 4.8 22.5 0.00 0.05 0.05 59 1003.4
20260509194129 18 139 1.6 19.3 0.00 0.05 0.05 61 1003.2
20260509193624 19 195 17.7 19.3 0.00 0.05 0.05 59 1003.3
20260509193120 20 158 6.4 14.5 0.00 0.05 0.05 58 1003.3
20260509192617 19 173 14.5 20.9 0.00 0.05 0.05 57 1003.5
20260509192112 19 232 4.8 16.1 0.00 0.05 0.05 58 1003.4
20260509191607 18 213 11.3 27.4 0.00 0.05 0.05 59 1003.4
20260509191103 19 178 14.5 16.1 0.00 0.05 0.05 57 1003.5
20260509190600 20 186 9.7 14.5 0.00 0.05 0.05 56 1003.8
20260509190058 18 126 8.0 27.4 0.00 0.05 0.05 57 1004.1
20260509185555 18 200 6.4 14.5 0.00 0.05 0.05 60 1004.0
20260509185051 20 285 9.7 12.9 0.00 0.05 0.05 60 1003.9
20260509184549 20 133 4.8 9.7 0.00 0.05 0.05 60 1004.0
20260509184045 20 64 4.8 6.4 0.00 0.05 0.05 61 1004.0
20260509183541 18 194 8.0 25.7 0.00 0.05 0.05 57 1004.2
20260509183036 18 243 6.4 16.1 0.00 0.05 0.05 59 1004.3
20260509182533 18 127 8.0 14.5 0.00 0.05 0.05 61 1004.3
20260509182025 18 203 3.2 14.5 0.00 0.05 0.05 63 1004.4
20260509181523 18 165 3.2 17.7 0.00 0.05 0.05 62 1004.3
20260509181020 17 195 6.4 19.3 0.00 0.05 0.05 64 1004.4
20260509180515 18 197 9.7 14.5 0.00 0.05 0.05 63 1004.3
20260509180014 17 170 6.4 17.7 0.00 0.05 0.05 65 1004.4
20260509175508 17 200 8.0 20.9 0.00 0.05 0.05 68 1004.5
20260509175005 17 229 4.8 9.7 0.00 0.05 0.05 68 1004.6
20260509174501 17 235 3.2 17.7 0.00 0.05 0.05 68 1004.6
20260509173956 17 91 3.2 11.3 0.00 0.05 0.05 69 1004.8
20260509173451 17 221 4.8 12.9 0.00 0.05 0.05 70 1004.7
20260509172948 16 129 3.2 20.9 0.00 0.05 0.05 70 1004.5
20260509172445 17 226 0.0 12.9 0.00 0.05 0.05 70 1004.6
20260509171940 17 168 8.0 11.3 0.00 0.05 0.05 75 1004.6
20260509171437 17 123 8.0 9.7 0.00 0.05 0.05 71 1004.6
20260509170933 16 160 11.3 16.1 0.00 0.05 0.05 72 1004.9
20260509170429 16 170 6.4 11.3 0.00 0.05 0.05 73 1005.1
20260509165925 15 286 6.4 14.5 0.00 0.05 0.05 75 1005.1
20260509165419 16 180 3.2 8.0 0.00 0.05 0.05 75 1005.4
20260509164915 15 108 3.2 12.9 0.00 0.05 0.05 75 1005.2
20260509164411 16 132 1.6 9.7 0.00 0.05 0.05 74 1005.1
20260509163907 16 154 3.2 4.8 0.00 0.05 0.05 76 1005.1
20260509163404 15 292 8.0 11.3 0.00 0.05 0.05 78 1005.3
20260509162903 15 143 6.4 14.5 0.00 0.05 0.05 77 1005.5
20260509162402 15 200 3.2 8.0 0.00 0.05 0.05 77 1005.5
20260509161858 15 204 8.0 16.1 0.00 0.05 0.05 77 1005.5
20260509161354 15 193 6.4 14.5 0.00 0.05 0.05 77 1005.3
20260509160850 15 159 3.2 14.5 0.00 0.05 0.05 79 1005.5
20260509160346 15 166 14.5 16.1 0.00 0.05 0.05 79 1005.5
20260509155841 15 187 8.0 12.9 0.00 0.05 0.05 79 1005.6
20260509155338 15 141 3.2 12.9 0.00 0.05 0.05 81 1005.5
20260509154834 15 144 12.9 14.5 0.00 0.05 0.05 80 1005.8
20260509154331 14 198 6.4 14.5 0.00 0.05 0.05 82 1005.7
20260509153828 14 289 9.7 9.7 0.00 0.05 0.05 82 1005.6
20260509153324 14 123 8.0 14.5 0.00 0.05 0.05 82 1005.6
20260509152822 14 174 0.0 9.7 0.00 0.05 0.05 81 1005.6
20260509152317 14 140 4.8 12.9 0.00 0.05 0.05 83 1005.7
20260509151815 13 180 4.8 9.7 0.00 0.05 0.05 85 1005.4
20260509151311 13 142 6.4 8.0 0.00 0.05 0.05 85 1005.5
20260509150810 13 178 4.8 11.3 0.00 0.05 0.05 86 1005.5
20260509150307 13 190 8.0 17.7 0.00 0.05 0.05 86 1005.7
20260509145804 13 133 4.8 4.8 0.00 0.05 0.05 86 1005.5
20260509145306 13 141 4.8 8.0 0.00 0.05 0.05 88 1005.6
20260509144800 12 194 3.2 14.5 0.00 0.05 0.05 87 1005.6
20260509144258 12 180 6.4 16.1 0.00 0.05 0.05 87 1005.7
20260509143754 13 174 6.4 9.7 0.00 0.05 0.05 87 1005.8
20260509143252 12 151 3.2 9.7 0.00 0.05 0.05 88 1005.7
20260509142747 12 123 11.3 14.5 0.00 0.05 0.05 88 1005.7
20260509142244 12 189 6.4 8.0 0.00 0.05 0.05 88 1005.7
20260509141740 12 141 4.8 6.4 0.00 0.05 0.05 89 1005.7
20260509141237 12 178 4.8 8.0 0.00 0.05 0.05 90 1005.7
20260509140734 12 104 4.8 8.0 0.00 0.05 0.05 90 1005.7
20260509140231 12 196 6.4 8.0 0.00 0.05 0.05 90 1005.5
20260509135728 12 151 9.7 14.5 0.00 0.05 0.05 90 1005.8
20260509135226 12 168 6.4 11.3 0.00 0.05 0.05 91 1005.7
20260509134723 12 180 3.2 9.7 0.00 0.05 0.05 90 1005.6
20260509134220 11 164 6.4 17.7 0.00 0.05 0.05 90 1005.7
20260509133717 12 144 6.4 9.7 0.00 0.05 0.05 90 1005.7
20260509133214 11 177 1.6 8.0 0.00 0.05 0.05 91 1005.7
20260509132713 12 120 9.7 9.7 0.00 0.05 0.05 90 1005.9
20260509132211 11 127 3.2 9.7 0.00 0.05 0.05 91 1005.8
20260509131707 11 80 8.0 9.7 0.00 0.05 0.05 91 1005.8
20260509131204 11 137 6.4 8.0 0.00 0.05 0.05 91 1006.0
20260509130659 11 170 3.2 9.7 0.00 0.05 0.05 92 1005.8
20260509130156 11 113 4.8 9.7 0.00 0.05 0.05 92 1005.7
20260509125652 11 170 8.0 9.7 0.00 0.05 0.05 92 1006.0
20260509125149 11 83 3.2 8.0 0.00 0.05 0.05 92 1006.1
20260509124646 11 150 3.2 9.7 0.00 0.05 0.05 92 1006.0
20260509124143 11 115 4.8 9.7 0.00 0.05 0.05 93 1006.0
20260509123641 11 134 6.4 9.7 0.00 0.05 0.05 93 1006.2
20260509123137 11 215 11.3 12.9 0.00 0.05 0.05 93 1006.1
20260509122633 11 120 1.6 9.7 0.00 0.05 0.05 94 1006.3
20260509122130 11 119 3.2 12.9 0.00 0.05 0.05 94 1006.3
20260509121626 11 131 0.0 9.7 0.00 0.05 0.05 95 1006.4
20260509121125 10 123 6.4 11.3 0.00 0.05 0.05 94 1006.5
20260509120622 10 126 4.8 8.0 0.00 0.05 0.05 94 1006.5
20260509120120 11 149 3.2 9.7 0.00 0.05 0.05 95 1006.6
20260509115617 10 234 4.8 8.0 0.00 0.05 0.05 95 1006.3
20260509115115 10 110 6.4 6.4 0.00 0.05 0.05 95 1006.5
20260509114613 10 144 3.2 14.5 0.00 0.05 0.05 95 1006.4
20260509114112 10 139 4.8 6.4 0.00 0.05 0.05 96 1006.0
20260509113609 10 140 3.2 8.0 0.00 0.05 0.05 96 1006.2
20260509113107 10 164 3.2 6.4 0.00 0.05 0.05 96 1006.2
20260509112603 10 92 4.8 6.4 0.00 0.05 0.05 96 1006.2
20260509112100 10 168 4.8 9.7 0.00 0.05 0.05 96 1006.1
20260509111557 10 148 6.4 8.0 0.00 0.05 0.05 96 1006.1
20260509111054 10 159 11.3 14.5 0.00 0.05 0.05 97 1006.2
20260509110551 10 141 1.6 6.4 0.00 0.05 0.05 97 1006.2
20260509110048 10 185 3.2 9.7 0.00 0.05 0.05 97 1006.2
20260509105547 10 120 3.2 6.4 0.00 0.05 0.05 97 1006.1
20260509105044 10 119 3.2 8.0 0.00 0.05 0.05 97 1006.1
20260509104541 10 139 1.6 6.4 0.00 0.05 0.05 97 1006.2
20260509104037 10 118 4.8 8.0 0.00 0.05 0.05 97 1006.0
20260509103535 10 116 3.2 4.8 0.00 0.05 0.05 97 1006.3
20260509103033 10 139 1.6 8.0 0.00 0.05 0.05 97 1006.2
20260509102530 10 38 0.0 4.8 0.00 0.05 0.05 97 1006.3
20260509102027 10 146 4.8 4.8 0.00 0.05 0.05 97 1006.4
20260509101523 10 76 3.2 4.8 0.00 0.05 0.05 97 1006.3
20260509101020 10 213 3.2 6.4 0.00 0.05 0.05 97 1006.3
20260509100518 10 164 3.2 8.0 0.00 0.05 0.05 97 1006.3
20260509100015 10 144 3.2 6.4 0.00 0.05 0.05 97 1006.4
20260509095511 10 211 4.8 8.0 0.00 0.05 0.05 97 1006.2
20260509095009 10 171 3.2 8.0 0.00 0.05 0.05 97 1006.3
20260509094505 10 218 3.2 4.8 0.00 0.05 0.05 97 1006.5
20260509094002 10 129 3.2 8.0 0.00 0.05 0.05 97 1006.3
20260509093500 10 150 3.2 6.4 0.00 0.05 0.05 96 1006.3
20260509092957 10 236 1.6 6.4 0.00 0.05 0.05 96 1006.3
20260509092455 10 151 3.2 8.0 0.00 0.05 0.05 96 1006.2
20260509091954 10 188 3.2 4.8 0.00 0.05 0.05 96 1006.3
20260509091450 10 103 3.2 6.4 0.00 0.05 0.05 96 1006.3
20260509090947 10 182 3.2 6.4 0.00 0.05 0.05 96 1006.4
20260509090445 10 130 4.8 4.8 0.00 0.05 0.05 96 1006.5
20260509085942 10 169 3.2 9.7 0.00 0.05 0.05 96 1006.6
20260509085439 10 150 4.8 8.0 0.00 0.05 0.05 96 1006.5
20260509084935 10 107 1.6 4.8 0.00 0.05 0.05 96 1006.6
20260509084432 10 132 1.6 3.2 0.00 0.05 0.05 96 1006.5
20260509083930 10 169 4.8 4.8 0.00 0.05 0.05 96 1006.5
20260509083427 10 154 4.8 9.7 0.00 0.05 0.05 96 1006.4
20260509082923 10 96 0.0 4.8 0.00 0.05 0.05 96 1006.5
20260509082421 10 127 3.2 6.4 0.00 0.05 0.05 96 1006.5
20260509081917 10 117 3.2 3.2 0.00 0.05 0.05 96 1006.4
20260509081415 10 181 1.6 8.0 0.00 0.05 0.05 96 1006.4
20260509080912 10 109 3.2 6.4 0.00 0.05 0.05 96 1006.5
20260509080410 10 175 3.2 6.4 0.00 0.05 0.05 96 1006.6
20260509075908 10 190 6.4 9.7 0.00 0.05 0.05 97 1006.7
20260509075405 10 138 0.0 4.8 0.00 0.05 0.05 97 1006.5
20260509074902 10 130 0.0 6.4 0.00 0.05 0.05 97 1006.7
20260509074400 10 87 1.6 4.8 0.00 0.05 0.05 97 1006.7
20260509073855 10 171 1.6 6.4 0.00 0.05 0.05 98 1006.6
20260509073352 10 193 1.6 4.8 0.00 0.05 0.05 99 1006.7
20260509072849 10 192 3.2 6.4 0.00 0.05 0.05 99 1006.6
20260509072345 10 166 3.2 3.2 0.00 0.05 0.05 99 1006.6
20260509071842 10 124 3.2 6.4 0.00 0.05 0.05 99 1006.7
20260509071339 10 178 1.6 3.2 0.00 0.05 0.05 99 1006.6
20260509070836 10 195 3.2 6.4 0.00 0.05 0.05 99 1006.7
20260509070333 10 101 3.2 6.4 0.00 0.05 0.05 99 1006.8
20260509065829 10 115 1.6 4.8 0.00 0.05 0.05 99 1006.9
20260509065326 10 221 1.6 4.8 0.00 0.05 0.05 99 1007.0
20260509064821 10 117 3.2 6.4 0.00 0.05 0.05 99 1007.1
20260509064319 10 66 0.0 4.8 0.00 0.05 0.05 99 1007.1
20260509063817 10 146 4.8 6.4 0.00 0.05 0.05 99 1007.1
20260509063313 10 143 4.8 4.8 0.00 0.05 0.05 99 1007.3
20260509062810 10 191 3.2 4.8 0.00 0.05 0.05 98 1007.3
20260509062308 10 170 4.8 6.4 0.00 0.05 0.05 98 1007.5
20260509061804 9 201 3.2 6.4 0.00 0.05 0.05 98 1007.3
20260509061302 10 108 6.4 6.4 0.00 0.05 0.05 98 1007.5
20260509060759 10 115 1.6 6.4 0.00 0.05 0.05 98 1007.7
20260509060255 10 110 1.6 6.4 0.00 0.05 0.05 98 1007.6
20260509055745 10 167 0.0 8.0 0.05 0.05 0.05 97 1007.7
20260509055241 10 113 6.4 8.0 0.05 0.05 0.05 97 1007.8
20260509054738 10 153 6.4 11.3 0.13 0.05 0.05 97 1007.8
20260509054235 10 190 1.6 4.8 0.23 0.05 0.05 96 1008.0
20260509053734 10 99 14.5 19.3 0.13 0.03 0.03 95 1007.9
20260509053230 10 130 4.8 8.0 0.05 0.00 0.00 94 1008.1
20260509052728 10 136 4.8 8.0 0.00 0.00 0.00 93 1008.1
20260509052226 10 77 11.3 12.9 0.00 0.00 0.00 92 1008.1
20260509051723 10 152 6.4 8.0 0.00 0.00 0.00 92 1008.2
20260509051221 10 146 4.8 8.0 0.00 0.00 0.00 93 1008.3
20260509050717 10 109 0.0 9.7 0.00 0.00 0.00 93 1008.2
20260509050214 10 142 4.8 6.4 0.00 0.00 0.00 93 1008.3
20260509045711 10 126 4.8 4.8 0.00 0.00 0.00 93 1008.2